,,,PA_Meas_PMT16A,,PR_Meas_QMR101_102,,RH_Meas_QMH101,,SR_Meas_QMS101,,TA_Meas_QMH101,,GenWind,,GenWind,
date,time,status,PA,status,PR,status,RH,status,SR,status,TA,status,DirAvg,status,SpdAvg,
2010-04-30, 00:00:05,VALID,1011.8,VALID,0,VALID,100.53,VALID,0.105969,VALID,25.1733,VALID,133,VALID,0.105469,
2010-04-30, 00:01:05,VALID,1011.78,VALID,0,VALID,100.446,VALID,0.105969,VALID,25.1947,VALID,133,VALID,0.420312,
2010-04-30, 00:02:05,VALID,1011.79,VALID,0,VALID,100.378,VALID,0,VALID,25.1733,VALID,133,VALID,0.615234,
2010-04-30, 00:03:05,VALID,1011.76,VALID,0,VALID,100.363,VALID,0,VALID,25.1733,VALID,133,VALID,0.661719,
2010-04-30, 00:04:05,VALID,1011.74,VALID,0,VALID,100.393,VALID,0,VALID,25.1928,VALID,132,VALID,0.355469,
2010-04-30, 00:05:05,VALID,1011.72,VALID,0,VALID,100.431,VALID,0.105969,VALID,25.1928,VALID,123,VALID,0.838281,
2010-04-30, 00:06:05,VALID,1011.71,VALID,0,VALID,100.393,VALID,0,VALID,25.1928,VALID,133,VALID,0.490625,
2010-04-30, 00:07:05,VALID,1011.69,VALID,0,VALID,100.469,VALID,0,VALID,25.2337,VALID,132,VALID,0.00429688,
2010-04-30, 00:08:05,VALID,1011.7,VALID,0,VALID,100.599,VALID,0.105969,VALID,25.2123,VALID,132,VALID,0,
2010-04-30, 00:09:05,VALID,1011.69,VALID,0,VALID,100.66,VALID,0.105969,VALID,25.2123,VALID,131,VALID,0.220313,
2010-04-30, 00:10:05,VALID,1011.72,VALID,0,VALID,100.79,VALID,0,VALID,25.2123,VALID,131,VALID,0.00234375,
2010-04-30, 00:11:05,VALID,1011.7,VALID,0,VALID,100.851,VALID,0.105969,VALID,25.2123,VALID,131,VALID,0.334375,
2010-04-30, 00:12:05,VALID,1011.7,VALID,0,VALID,100.904,VALID,0.105969,VALID,25.2142,VALID,131,VALID,0.587891,
2010-04-30, 00:13:05,VALID,1011.72,VALID,0,VALID,100.957,VALID,0,VALID,25.2123,VALID,131,VALID,0.365234,
2010-04-30, 00:14:05,VALID,1011.73,VALID,0,VALID,101.018,VALID,0,VALID,25.1928,VALID,131,VALID,0.232422,
2010-04-30, 00:15:05,VALID,1011.72,VALID,0,VALID,101.087,VALID,0,VALID,25.1733,VALID,131,VALID,0.183984,
2010-04-30, 00:16:05,VALID,1011.74,VALID,0,VALID,101.117,VALID,0,VALID,25.1947,VALID,129,VALID,0.230469,
2010-04-30, 00:17:05,VALID,1011.73,VALID,0,VALID,101.209,VALID,0,VALID,25.1947,VALID,115,VALID,0.732813,
2010-04-30, 00:18:05,VALID,1011.74,VALID,0,VALID,101.201,VALID,0,VALID,25.2142,VALID,114,VALID,0.491406,
2010-04-30, 00:19:05,VALID,1011.73,VALID,0,VALID,101.186,VALID,0,VALID,25.1928,VALID,102,VALID,0.639844,
2010-04-30, 00:20:05,VALID,1011.71,VALID,0,VALID,101.117,VALID,0,VALID,25.1928,VALID,101,VALID,0.404297,
2010-04-30, 00:21:05,VALID,1011.67,VALID,0,VALID,101.095,VALID,0,VALID,25.1928,VALID,97,VALID,0.394141,
2010-04-30, 00:22:05,VALID,1011.66,VALID,0,VALID,101.064,VALID,0,VALID,25.1947,VALID,97,VALID,0.221484,
2010-04-30, 00:23:05,VALID,1011.65,VALID,0,VALID,101.041,VALID,0,VALID,25.1733,VALID,97,VALID,0,
2010-04-30, 00:24:05,VALID,1011.63,VALID,0,VALID,101.064,VALID,0,VALID,25.1947,VALID,97,VALID,0,
2010-04-30, 00:25:05,VALID,1011.59,VALID,0,VALID,101.087,VALID,0,VALID,25.1752,VALID,83,VALID,0.6375,
2010-04-30, 00:26:05,VALID,1011.59,VALID,0,VALID,101.117,VALID,0,VALID,25.1733,VALID,77,VALID,0.0820313,
2010-04-30, 00:27:05,VALID,1011.59,VALID,0,VALID,101.125,VALID,0,VALID,25.1752,VALID,77,VALID,0,
2010-04-30, 00:28:05,VALID,1011.58,VALID,0,VALID,101.125,VALID,0,VALID,25.1557,VALID,77,VALID,0,
2010-04-30, 00:29:05,VALID,1011.57,VALID,0,VALID,101.117,VALID,0,VALID,25.1557,VALID,77,VALID,0,
2010-04-30, 00:30:05,VALID,1011.57,VALID,0,VALID,101.14,VALID,0,VALID,25.1557,VALID,77,VALID,0.0890625,
2010-04-30, 00:31:05,VALID,1011.56,VALID,0,VALID,101.255,VALID,0,VALID,25.1752,VALID,127,VALID,0.505469,
2010-04-30, 00:32:05,VALID,1011.55,VALID,0,VALID,101.262,VALID,0.105969,VALID,25.1557,VALID,144,VALID,0.695313,
2010-04-30, 00:33:05,VALID,1011.52,VALID,0,VALID,101.194,VALID,0,VALID,25.1557,VALID,155,VALID,0.617188,
2010-04-30, 00:34:05,VALID,1011.51,VALID,0,VALID,101.186,VALID,0,VALID,25.1148,VALID,155,VALID,0.0105469,
2010-04-30, 00:35:05,VALID,1011.52,VALID,0,VALID,101.171,VALID,0,VALID,25.1148,VALID,155,VALID,0,
2010-04-30, 00:36:05,VALID,1011.49,VALID,0,VALID,101.14,VALID,0.105969,VALID,25.1148,VALID,155,VALID,0,
2010-04-30, 00:37:05,VALID,1011.48,VALID,0,VALID,101.125,VALID,0,VALID,25.0954,VALID,155,VALID,0,
2010-04-30, 00:38:05,VALID,1011.48,VALID,0,VALID,101.156,VALID,0,VALID,25.1148,VALID,155,VALID,0,
2010-04-30, 00:39:05,VALID,1011.46,VALID,0,VALID,101.224,VALID,0.105969,VALID,25.1148,VALID,155,VALID,0,
2010-04-30, 00:40:05,VALID,1011.47,VALID,0,VALID,101.24,VALID,0,VALID,25.1167,VALID,155,VALID,0,
2010-04-30, 00:41:05,VALID,1011.42,VALID,0,VALID,101.224,VALID,0,VALID,25.1167,VALID,155,VALID,0,
2010-04-30, 00:42:05,VALID,1011.44,VALID,0,VALID,101.278,VALID,0,VALID,25.1362,VALID,155,VALID,0.141406,
2010-04-30, 00:43:05,VALID,1011.44,VALID,0,VALID,101.308,VALID,0,VALID,25.1362,VALID,155,VALID,0.351172,
2010-04-30, 00:44:05,VALID,1011.43,VALID,0,VALID,101.331,VALID,0,VALID,25.0954,VALID,155,VALID,0.270703,
2010-04-30, 00:45:05,VALID,1011.46,VALID,0,VALID,101.354,VALID,0,VALID,25.0564,VALID,155,VALID,0.261328,
2010-04-30, 00:46:05,VALID,1011.42,VALID,0,VALID,101.438,VALID,0.105969,VALID,25.0759,VALID,155,VALID,0.348828,
2010-04-30, 00:47:05,VALID,1011.42,VALID,0,VALID,101.522,VALID,0,VALID,25.0583,VALID,131,VALID,0.358984,
2010-04-30, 00:48:05,VALID,1011.38,VALID,0,VALID,101.56,VALID,0.105969,VALID,25.0369,VALID,131,VALID,0.386719,
2010-04-30, 00:49:05,VALID,1011.36,VALID,0,VALID,101.56,VALID,0,VALID,25.0174,VALID,130,VALID,0.352344,
2010-04-30, 00:50:05,VALID,1011.31,VALID,0,VALID,101.575,VALID,0.105969,VALID,25.0388,VALID,98,VALID,0.349219,
2010-04-30, 00:51:05,VALID,1011.32,VALID,0,VALID,101.567,VALID,0.105969,VALID,25.0174,VALID,92,VALID,0.274219,
2010-04-30, 00:52:05,VALID,1011.28,VALID,0,VALID,101.583,VALID,0,VALID,25.0174,VALID,92,VALID,0.0109375,
2010-04-30, 00:53:05,VALID,1011.3,VALID,0,VALID,101.59,VALID,0,VALID,25.0193,VALID,92,VALID,0,
2010-04-30, 00:54:05,VALID,1011.24,VALID,0,VALID,101.628,VALID,0,VALID,24.9784,VALID,92,VALID,0,
2010-04-30, 00:55:05,VALID,1011.25,VALID,0,VALID,101.628,VALID,0,VALID,24.9784,VALID,92,VALID,0.0960938,
2010-04-30, 00:56:05,VALID,1011.28,VALID,0,VALID,101.667,VALID,0,VALID,24.9784,VALID,92,VALID,0.0308594,
2010-04-30, 00:57:05,VALID,1011.23,VALID,0,VALID,101.705,VALID,0,VALID,24.9784,VALID,92,VALID,0,
2010-04-30, 00:58:05,VALID,1011.22,VALID,0,VALID,101.75,VALID,0,VALID,24.9998,VALID,92,VALID,0,
2010-04-30, 00:59:05,VALID,1011.22,VALID,0,VALID,101.773,VALID,0,VALID,24.9803,VALID,92,VALID,0,
2010-04-30, 01:00:05,VALID,1011.19,VALID,0,VALID,101.804,VALID,0,VALID,24.9608,VALID,92,VALID,0,
2010-04-30, 01:01:05,VALID,1011.16,VALID,0,VALID,101.834,VALID,0,VALID,24.9413,VALID,92,VALID,0,
2010-04-30, 01:02:05,VALID,1011.15,VALID,0,VALID,101.834,VALID,0,VALID,24.9218,VALID,92,VALID,0,
2010-04-30, 01:03:05,VALID,1011.13,VALID,0,VALID,101.857,VALID,0,VALID,24.9218,VALID,92,VALID,0,
2010-04-30, 01:04:05,VALID,1011.1,VALID,0,VALID,101.865,VALID,0,VALID,24.9023,VALID,92,VALID,0,
2010-04-30, 01:05:05,VALID,1011.12,VALID,0,VALID,101.888,VALID,0,VALID,24.9023,VALID,92,VALID,0,
2010-04-30, 01:06:05,VALID,1011.09,VALID,0,VALID,101.918,VALID,0,VALID,24.8828,VALID,92,VALID,0,
2010-04-30, 01:07:05,VALID,1011.11,VALID,0,VALID,101.926,VALID,0,VALID,24.8828,VALID,92,VALID,0,
2010-04-30, 01:08:05,VALID,1011.12,VALID,0,VALID,101.979,VALID,0,VALID,24.8828,VALID,92,VALID,0,
2010-04-30, 01:09:05,VALID,1011.12,VALID,0,VALID,101.994,VALID,0,VALID,24.8615,VALID,92,VALID,0,
2010-04-30, 01:10:05,VALID,1011.13,VALID,0,VALID,102.002,VALID,0,VALID,24.8828,VALID,92,VALID,0,
2010-04-30, 01:11:05,VALID,1011.14,VALID,0,VALID,102.048,VALID,0,VALID,24.8633,VALID,92,VALID,0,
2010-04-30, 01:12:05,VALID,1011.13,VALID,0,VALID,102.063,VALID,0,VALID,24.8633,VALID,92,VALID,0.238672,
2010-04-30, 01:13:05,VALID,1011.1,VALID,0,VALID,102.078,VALID,0,VALID,24.8438,VALID,92,VALID,0.425,
2010-04-30, 01:14:05,VALID,1011.11,VALID,0,VALID,102.086,VALID,0,VALID,24.8438,VALID,64,VALID,0.445313,
2010-04-30, 01:15:05,VALID,1011.11,VALID,0,VALID,102.086,VALID,0,VALID,24.8244,VALID,64,VALID,0.344531,
2010-04-30, 01:16:05,VALID,1011.1,VALID,0,VALID,102.071,VALID,0,VALID,24.8049,VALID,64,VALID,0.370313,
2010-04-30, 01:17:05,VALID,1011.1,VALID,0,VALID,102.063,VALID,0,VALID,24.8049,VALID,64,VALID,0.246484,
2010-04-30, 01:18:05,VALID,1011.09,VALID,0,VALID,102.055,VALID,0,VALID,24.8049,VALID,60,VALID,0.305078,
2010-04-30, 01:19:05,VALID,1011.1,VALID,0,VALID,102.048,VALID,0,VALID,24.7854,VALID,60,VALID,0.377344,
2010-04-30, 01:20:05,VALID,1011.11,VALID,0,VALID,102.033,VALID,0,VALID,24.8049,VALID,60,VALID,0.277734,
2010-04-30, 01:21:05,VALID,1011.11,VALID,0,VALID,102.033,VALID,0,VALID,24.7854,VALID,58,VALID,0.391406,
2010-04-30, 01:22:05,VALID,1011.1,VALID,0,VALID,102.002,VALID,0,VALID,24.7854,VALID,58,VALID,0.399219,
2010-04-30, 01:23:05,VALID,1011.09,VALID,0,VALID,102.025,VALID,0,VALID,24.7659,VALID,58,VALID,0.212891,
2010-04-30, 01:24:05,VALID,1011.05,VALID,0,VALID,101.994,VALID,0,VALID,24.7659,VALID,58,VALID,0.329688,
2010-04-30, 01:25:05,VALID,1011.06,VALID,0,VALID,101.994,VALID,0,VALID,24.7659,VALID,58,VALID,0.359766,
2010-04-30, 01:26:05,VALID,1011.02,VALID,0,VALID,102.002,VALID,0,VALID,24.7445,VALID,58,VALID,0.353516,
2010-04-30, 01:27:05,VALID,1011.01,VALID,0,VALID,102.017,VALID,0,VALID,24.7464,VALID,58,VALID,0.296875,
2010-04-30, 01:28:05,VALID,1011.02,VALID,0,VALID,102.025,VALID,0,VALID,24.7269,VALID,58,VALID,0.160938,
2010-04-30, 01:29:05,VALID,1010.98,VALID,0,VALID,102.055,VALID,0,VALID,24.7074,VALID,58,VALID,0.0945313,
2010-04-30, 01:30:05,VALID,1010.97,VALID,0,VALID,102.063,VALID,0,VALID,24.686,VALID,58,VALID,0,
2010-04-30, 01:31:05,VALID,1010.97,VALID,0,VALID,102.101,VALID,0,VALID,24.6471,VALID,58,VALID,0,
2010-04-30, 01:32:05,VALID,1010.92,VALID,0,VALID,102.086,VALID,0,VALID,24.6684,VALID,58,VALID,0,
2010-04-30, 01:33:05,VALID,1010.92,VALID,0,VALID,102.094,VALID,0,VALID,24.6489,VALID,58,VALID,0,
2010-04-30, 01:34:05,VALID,1010.9,VALID,0,VALID,102.101,VALID,0,VALID,24.6489,VALID,58,VALID,0.199609,
2010-04-30, 01:35:05,VALID,1010.88,VALID,0,VALID,102.124,VALID,0,VALID,24.6489,VALID,58,VALID,0.00195313,
2010-04-30, 01:36:05,VALID,1010.85,VALID,0,VALID,102.094,VALID,0,VALID,24.6489,VALID,58,VALID,0.332422,
2010-04-30, 01:37:05,VALID,1010.82,VALID,0,VALID,102.124,VALID,0,VALID,24.6684,VALID,58,VALID,0.269531,
2010-04-30, 01:38:05,VALID,1010.81,VALID,0,VALID,102.101,VALID,0,VALID,24.6684,VALID,58,VALID,0.241797,
2010-04-30, 01:39:05,VALID,1010.8,VALID,0,VALID,102.109,VALID,0,VALID,24.6684,VALID,58,VALID,0.262891,
2010-04-30, 01:40:05,VALID,1010.82,VALID,0,VALID,102.101,VALID,0,VALID,24.6879,VALID,58,VALID,0.355469,
2010-04-30, 01:41:05,VALID,1010.79,VALID,0,VALID,102.094,VALID,0,VALID,24.6684,VALID,58,VALID,0.194141,
2010-04-30, 01:42:05,VALID,1010.83,VALID,0,VALID,102.071,VALID,0,VALID,24.6471,VALID,57,VALID,0.414844,
2010-04-30, 01:43:05,VALID,1010.84,VALID,0,VALID,102.078,VALID,0,VALID,24.6684,VALID,57,VALID,0.176172,
2010-04-30, 01:44:05,VALID,1010.81,VALID,0,VALID,102.048,VALID,0,VALID,24.6684,VALID,55,VALID,0.427734,
2010-04-30, 01:45:05,VALID,1010.82,VALID,0,VALID,102.025,VALID,0,VALID,24.6471,VALID,54,VALID,0.428125,
2010-04-30, 01:46:05,VALID,1010.82,VALID,0,VALID,102.025,VALID,0,VALID,24.686,VALID,30,VALID,0.453516,
2010-04-30, 01:47:05,VALID,1010.8,VALID,0,VALID,101.994,VALID,0,VALID,24.7074,VALID,30,VALID,0.478125,
2010-04-30, 01:48:05,VALID,1010.8,VALID,0,VALID,102.002,VALID,0,VALID,24.6666,VALID,30,VALID,0.522266,
2010-04-30, 01:49:05,VALID,1010.83,VALID,0,VALID,102.002,VALID,0,VALID,24.6879,VALID,30,VALID,0.399609,
2010-04-30, 01:50:05,VALID,1010.82,VALID,0,VALID,101.994,VALID,0,VALID,24.6666,VALID,30,VALID,0.38125,
2010-04-30, 01:51:05,VALID,1010.81,VALID,0,VALID,101.956,VALID,0,VALID,24.6489,VALID,30,VALID,0.315625,
2010-04-30, 01:52:05,VALID,1010.81,VALID,0,VALID,102.002,VALID,0.105969,VALID,24.6276,VALID,30,VALID,0.292188,
2010-04-30, 01:53:05,VALID,1010.83,VALID,0,VALID,102.01,VALID,0,VALID,24.6294,VALID,30,VALID,0.262891,
2010-04-30, 01:54:05,VALID,1010.81,VALID,0,VALID,102.025,VALID,0,VALID,24.6081,VALID,30,VALID,0.140234,
2010-04-30, 01:55:05,VALID,1010.86,VALID,0,VALID,102.048,VALID,0,VALID,24.6081,VALID,30,VALID,0,
2010-04-30, 01:56:05,VALID,1010.88,VALID,0,VALID,102.055,VALID,0,VALID,24.6081,VALID,30,VALID,0,
2010-04-30, 01:57:05,VALID,1010.88,VALID,0,VALID,102.063,VALID,0.105969,VALID,24.6099,VALID,30,VALID,0,
2010-04-30, 01:58:05,VALID,1010.91,VALID,0,VALID,102.071,VALID,0,VALID,24.6081,VALID,30,VALID,0,
2010-04-30, 01:59:05,VALID,1010.94,VALID,0,VALID,102.063,VALID,0.105969,VALID,24.5886,VALID,30,VALID,0,
2010-04-30, 02:00:05,VALID,1010.93,VALID,0,VALID,102.086,VALID,0.105969,VALID,24.6099,VALID,30,VALID,0,
2010-04-30, 02:01:05,VALID,1010.91,VALID,0,VALID,102.094,VALID,0.105969,VALID,24.5886,VALID,30,VALID,0.134375,
2010-04-30, 02:02:05,VALID,1010.88,VALID,0,VALID,102.101,VALID,0.105969,VALID,24.5886,VALID,30,VALID,0.250781,
2010-04-30, 02:03:05,VALID,1010.9,VALID,0,VALID,102.124,VALID,0,VALID,24.5886,VALID,30,VALID,0.363281,
2010-04-30, 02:04:05,VALID,1010.87,VALID,0,VALID,102.116,VALID,0,VALID,24.6081,VALID,30,VALID,0.305078,
2010-04-30, 02:05:05,VALID,1010.89,VALID,0,VALID,102.094,VALID,0.105969,VALID,24.6276,VALID,30,VALID,0.149609,
2010-04-30, 02:06:05,VALID,1010.88,VALID,0,VALID,102.063,VALID,0.105969,VALID,24.6471,VALID,30,VALID,0,
2010-04-30, 02:07:05,VALID,1010.83,VALID,0,VALID,102.048,VALID,0.105969,VALID,24.6489,VALID,30,VALID,0,
2010-04-30, 02:08:05,VALID,1010.82,VALID,0,VALID,102.002,VALID,0.105969,VALID,24.6276,VALID,30,VALID,0,
2010-04-30, 02:09:05,VALID,1010.82,VALID,0,VALID,101.979,VALID,0,VALID,24.6081,VALID,30,VALID,0,
2010-04-30, 02:10:05,VALID,1010.8,VALID,0,VALID,101.964,VALID,0,VALID,24.6489,VALID,30,VALID,0,
2010-04-30, 02:11:05,VALID,1010.78,VALID,0,VALID,101.972,VALID,0.105969,VALID,24.6489,VALID,30,VALID,0,
2010-04-30, 02:12:05,VALID,1010.79,VALID,0,VALID,101.964,VALID,0,VALID,24.6294,VALID,30,VALID,0,
2010-04-30, 02:13:05,VALID,1010.78,VALID,0,VALID,101.918,VALID,0,VALID,24.6081,VALID,30,VALID,0,
2010-04-30, 02:14:05,VALID,1010.79,VALID,0,VALID,101.903,VALID,0,VALID,24.5886,VALID,30,VALID,0,
2010-04-30, 02:15:05,VALID,1010.8,VALID,0,VALID,101.888,VALID,0.105969,VALID,24.6081,VALID,30,VALID,0,
2010-04-30, 02:16:05,VALID,1010.78,VALID,0,VALID,101.895,VALID,0,VALID,24.6294,VALID,30,VALID,0,
2010-04-30, 02:17:05,VALID,1010.8,VALID,0,VALID,101.872,VALID,0,VALID,24.6081,VALID,30,VALID,0,
2010-04-30, 02:18:05,VALID,1010.81,VALID,0,VALID,101.895,VALID,0,VALID,24.6294,VALID,30,VALID,0,
2010-04-30, 02:19:05,VALID,1010.81,VALID,0,VALID,101.888,VALID,0,VALID,24.6081,VALID,30,VALID,0,
2010-04-30, 02:20:05,VALID,1010.81,VALID,0,VALID,101.88,VALID,0,VALID,24.6081,VALID,30,VALID,0,
2010-04-30, 02:21:05,VALID,1010.81,VALID,0,VALID,101.911,VALID,0,VALID,24.6294,VALID,30,VALID,0,
2010-04-30, 02:22:05,VALID,1010.82,VALID,0,VALID,101.911,VALID,0,VALID,24.6294,VALID,30,VALID,0,
2010-04-30, 02:23:05,VALID,1010.83,VALID,0,VALID,101.941,VALID,0,VALID,24.6489,VALID,30,VALID,0,
2010-04-30, 02:24:05,VALID,1010.82,VALID,0,VALID,101.979,VALID,0,VALID,24.6276,VALID,30,VALID,0,
2010-04-30, 02:25:05,VALID,1010.83,VALID,0,VALID,102.01,VALID,0.105969,VALID,24.6081,VALID,30,VALID,0,
2010-04-30, 02:26:05,VALID,1010.84,VALID,0,VALID,102.033,VALID,0,VALID,24.6081,VALID,30,VALID,0,
2010-04-30, 02:27:05,VALID,1010.85,VALID,0,VALID,102.033,VALID,0,VALID,24.6099,VALID,30,VALID,0,
2010-04-30, 02:28:04,VALID,1010.85,VALID,0,VALID,102.01,VALID,0,VALID,24.6099,VALID,30,VALID,0,
2010-04-30, 02:29:04,VALID,1010.87,VALID,0,VALID,102.002,VALID,0,VALID,24.6081,VALID,30,VALID,0,
2010-04-30, 02:30:04,VALID,1010.91,VALID,0,VALID,102.017,VALID,0.105969,VALID,24.6081,VALID,30,VALID,0,
2010-04-30, 02:31:04,VALID,1010.94,VALID,0,VALID,102.033,VALID,0.105969,VALID,24.6294,VALID,30,VALID,0,
2010-04-30, 02:32:04,VALID,1010.98,VALID,0,VALID,102.033,VALID,0.105969,VALID,24.6276,VALID,30,VALID,0,
2010-04-30, 02:33:04,VALID,1010.96,VALID,0,VALID,102.04,VALID,0.105969,VALID,24.6276,VALID,30,VALID,0,
2010-04-30, 02:34:04,VALID,1011.01,VALID,0,VALID,102.04,VALID,0,VALID,24.6489,VALID,30,VALID,0,
2010-04-30, 02:35:04,VALID,1011.03,VALID,0,VALID,102.033,VALID,0.105969,VALID,24.6471,VALID,30,VALID,0,
2010-04-30, 02:36:04,VALID,1011.01,VALID,0,VALID,102.002,VALID,0,VALID,24.6684,VALID,30,VALID,0,
2010-04-30, 02:37:04,VALID,1011.02,VALID,0,VALID,101.964,VALID,0,VALID,24.6666,VALID,30,VALID,0,
2010-04-30, 02:38:04,VALID,1011.02,VALID,0,VALID,101.926,VALID,0,VALID,24.6879,VALID,30,VALID,0,
2010-04-30, 02:39:04,VALID,1010.97,VALID,0,VALID,101.926,VALID,0,VALID,24.6879,VALID,30,VALID,0,
2010-04-30, 02:40:04,VALID,1010.96,VALID,0,VALID,101.88,VALID,0,VALID,24.6666,VALID,30,VALID,0,
2010-04-30, 02:41:04,VALID,1010.93,VALID,0,VALID,101.834,VALID,0.105969,VALID,24.7074,VALID,30,VALID,0,
2010-04-30, 02:42:04,VALID,1010.9,VALID,0,VALID,101.834,VALID,0.105969,VALID,24.686,VALID,30,VALID,0,
2010-04-30, 02:43:04,VALID,1010.89,VALID,0,VALID,101.85,VALID,0,VALID,24.686,VALID,30,VALID,0,
2010-04-30, 02:44:04,VALID,1010.88,VALID,0,VALID,101.819,VALID,0.105969,VALID,24.7074,VALID,30,VALID,0.0703125,
2010-04-30, 02:45:04,VALID,1010.87,VALID,0,VALID,101.827,VALID,0,VALID,24.7269,VALID,30,VALID,0,
2010-04-30, 02:46:04,VALID,1010.88,VALID,0,VALID,101.88,VALID,0.105969,VALID,24.7055,VALID,30,VALID,0.0015625,
2010-04-30, 02:47:04,VALID,1010.85,VALID,0,VALID,101.895,VALID,0.105969,VALID,24.725,VALID,30,VALID,0.183984,
2010-04-30, 02:48:04,VALID,1010.83,VALID,0,VALID,101.903,VALID,0.105969,VALID,24.686,VALID,30,VALID,0.334375,
2010-04-30, 02:49:04,VALID,1010.83,VALID,0,VALID,101.872,VALID,0,VALID,24.686,VALID,30,VALID,0.34375,
2010-04-30, 02:50:04,VALID,1010.82,VALID,0,VALID,101.88,VALID,0.105969,VALID,24.686,VALID,30,VALID,0.271094,
2010-04-30, 02:51:04,VALID,1010.8,VALID,0,VALID,101.895,VALID,0.105969,VALID,24.6666,VALID,30,VALID,0.0277344,
2010-04-30, 02:52:04,VALID,1010.8,VALID,0,VALID,101.903,VALID,0.105969,VALID,24.6666,VALID,30,VALID,0,
2010-04-30, 02:53:04,VALID,1010.78,VALID,0,VALID,101.926,VALID,0,VALID,24.6471,VALID,30,VALID,0,
2010-04-30, 02:54:04,VALID,1010.79,VALID,0,VALID,101.949,VALID,0.105969,VALID,24.6666,VALID,30,VALID,0,
2010-04-30, 02:55:04,VALID,1010.77,VALID,0,VALID,101.964,VALID,0.105969,VALID,24.6879,VALID,30,VALID,0,
2010-04-30, 02:56:04,VALID,1010.78,VALID,0,VALID,101.994,VALID,0,VALID,24.6684,VALID,30,VALID,0,
2010-04-30, 02:57:04,VALID,1010.79,VALID,0,VALID,102.017,VALID,0,VALID,24.6879,VALID,30,VALID,0,
2010-04-30, 02:58:04,VALID,1010.77,VALID,0,VALID,102.033,VALID,0,VALID,24.686,VALID,30,VALID,0,
2010-04-30, 02:59:04,VALID,1010.74,VALID,0,VALID,102.017,VALID,0,VALID,24.686,VALID,30,VALID,0,
2010-04-30, 03:00:04,VALID,1010.72,VALID,0,VALID,102.025,VALID,0,VALID,24.7074,VALID,30,VALID,0,
2010-04-30, 03:01:04,VALID,1010.73,VALID,0,VALID,101.979,VALID,0,VALID,24.6879,VALID,30,VALID,0,
2010-04-30, 03:02:04,VALID,1010.72,VALID,0,VALID,101.956,VALID,0.105969,VALID,24.6879,VALID,30,VALID,0,
2010-04-30, 03:03:04,VALID,1010.71,VALID,0,VALID,101.949,VALID,0,VALID,24.6666,VALID,30,VALID,0,
2010-04-30, 03:04:04,VALID,1010.71,VALID,0,VALID,101.903,VALID,0,VALID,24.6666,VALID,30,VALID,0,
2010-04-30, 03:05:04,VALID,1010.7,VALID,0,VALID,101.865,VALID,0,VALID,24.6471,VALID,30,VALID,0,
2010-04-30, 03:06:04,VALID,1010.7,VALID,0,VALID,101.88,VALID,0,VALID,24.6666,VALID,30,VALID,0,
2010-04-30, 03:07:04,VALID,1010.7,VALID,0,VALID,101.895,VALID,0,VALID,24.6666,VALID,30,VALID,0,
2010-04-30, 03:08:04,VALID,1010.71,VALID,0,VALID,101.941,VALID,0.105969,VALID,24.7074,VALID,30,VALID,0,
2010-04-30, 03:09:04,VALID,1010.69,VALID,0,VALID,101.949,VALID,0,VALID,24.6666,VALID,30,VALID,0,
2010-04-30, 03:10:04,VALID,1010.69,VALID,0,VALID,101.949,VALID,0,VALID,24.6666,VALID,30,VALID,0,
2010-04-30, 03:11:04,VALID,1010.66,VALID,0,VALID,101.979,VALID,0.105969,VALID,24.6666,VALID,30,VALID,0,
2010-04-30, 03:12:04,VALID,1010.65,VALID,0,VALID,102.002,VALID,0,VALID,24.6666,VALID,30,VALID,0,
2010-04-30, 03:13:04,VALID,1010.66,VALID,0,VALID,102.017,VALID,0,VALID,24.6471,VALID,30,VALID,0,
2010-04-30, 03:14:04,VALID,1010.65,VALID,0,VALID,102.033,VALID,0.105969,VALID,24.6471,VALID,30,VALID,0,
2010-04-30, 03:15:04,VALID,1010.66,VALID,0,VALID,102.033,VALID,0,VALID,24.6684,VALID,30,VALID,0,
2010-04-30, 03:16:04,VALID,1010.67,VALID,0,VALID,102.033,VALID,0.105969,VALID,24.6471,VALID,30,VALID,0,
2010-04-30, 03:17:04,VALID,1010.65,VALID,0,VALID,102.048,VALID,0.105969,VALID,24.6471,VALID,30,VALID,0,
2010-04-30, 03:18:04,VALID,1010.64,VALID,0,VALID,102.033,VALID,0,VALID,24.6666,VALID,30,VALID,0,
2010-04-30, 03:19:04,VALID,1010.64,VALID,0,VALID,102.071,VALID,0,VALID,24.6879,VALID,30,VALID,0,
2010-04-30, 03:20:04,VALID,1010.61,VALID,0,VALID,102.071,VALID,0,VALID,24.6666,VALID,30,VALID,0,
2010-04-30, 03:21:04,VALID,1010.6,VALID,0,VALID,102.033,VALID,0,VALID,24.6879,VALID,30,VALID,0,
2010-04-30, 03:22:04,VALID,1010.59,VALID,0,VALID,102.033,VALID,0.105969,VALID,24.6666,VALID,30,VALID,0,
2010-04-30, 03:23:04,VALID,1010.59,VALID,0,VALID,102.078,VALID,0.105969,VALID,24.686,VALID,30,VALID,0.198437,
2010-04-30, 03:24:04,VALID,1010.6,VALID,0,VALID,102.063,VALID,0,VALID,24.6879,VALID,30,VALID,0,
2010-04-30, 03:25:04,VALID,1010.59,VALID,0,VALID,102.048,VALID,0.105969,VALID,24.6452,VALID,30,VALID,0,
2010-04-30, 03:26:04,VALID,1010.56,VALID,0,VALID,102.048,VALID,0.105969,VALID,24.6666,VALID,30,VALID,0,
2010-04-30, 03:27:04,VALID,1010.57,VALID,0,VALID,102.078,VALID,0.105969,VALID,24.6471,VALID,30,VALID,0,
2010-04-30, 03:28:04,VALID,1010.54,VALID,0,VALID,102.048,VALID,0.105969,VALID,24.6471,VALID,30,VALID,0,
2010-04-30, 03:29:04,VALID,1010.56,VALID,0,VALID,102.055,VALID,0,VALID,24.6489,VALID,30,VALID,0,
2010-04-30, 03:30:04,VALID,1010.57,VALID,0,VALID,102.033,VALID,0,VALID,24.6471,VALID,30,VALID,0,
2010-04-30, 03:31:04,VALID,1010.58,VALID,0,VALID,102.01,VALID,0.105969,VALID,24.6081,VALID,30,VALID,0.133984,
2010-04-30, 03:32:04,VALID,1010.59,VALID,0,VALID,101.964,VALID,0,VALID,24.6489,VALID,30,VALID,0,
2010-04-30, 03:33:04,VALID,1010.61,VALID,0,VALID,101.949,VALID,0.105969,VALID,24.6489,VALID,30,VALID,0,
2010-04-30, 03:34:04,VALID,1010.61,VALID,0,VALID,101.979,VALID,0.105969,VALID,24.6471,VALID,30,VALID,0,
2010-04-30, 03:35:04,VALID,1010.61,VALID,0,VALID,102.01,VALID,0.105969,VALID,24.6684,VALID,30,VALID,0,
2010-04-30, 03:36:04,VALID,1010.65,VALID,0,VALID,102.033,VALID,0,VALID,24.6276,VALID,30,VALID,0,
2010-04-30, 03:37:04,VALID,1010.65,VALID,0,VALID,102.01,VALID,0.105969,VALID,24.6276,VALID,30,VALID,0,
2010-04-30, 03:38:04,VALID,1010.63,VALID,0,VALID,102.002,VALID,0,VALID,24.6276,VALID,30,VALID,0,
2010-04-30, 03:39:04,VALID,1010.63,VALID,0,VALID,102.017,VALID,0,VALID,24.6684,VALID,30,VALID,0,
2010-04-30, 03:40:04,VALID,1010.63,VALID,0,VALID,102.025,VALID,0,VALID,24.6489,VALID,30,VALID,0,
2010-04-30, 03:41:04,VALID,1010.64,VALID,0,VALID,102.04,VALID,0.105969,VALID,24.6276,VALID,30,VALID,0,
2010-04-30, 03:42:04,VALID,1010.62,VALID,0,VALID,102.025,VALID,0,VALID,24.6276,VALID,30,VALID,0,
2010-04-30, 03:43:04,VALID,1010.6,VALID,0,VALID,102.025,VALID,0.105969,VALID,24.6276,VALID,30,VALID,0,
2010-04-30, 03:44:04,VALID,1010.63,VALID,0,VALID,102.017,VALID,0,VALID,24.6684,VALID,31,VALID,0.211328,
2010-04-30, 03:45:04,VALID,1010.61,VALID,0,VALID,102.025,VALID,0.105969,VALID,24.6666,VALID,31,VALID,0,
2010-04-30, 03:46:04,VALID,1010.61,VALID,0,VALID,102.002,VALID,0.105969,VALID,24.6471,VALID,31,VALID,0,
2010-04-30, 03:47:04,VALID,1010.62,VALID,0,VALID,101.987,VALID,0,VALID,24.6471,VALID,31,VALID,0,
2010-04-30, 03:48:04,VALID,1010.61,VALID,0,VALID,101.918,VALID,0.105969,VALID,24.6666,VALID,31,VALID,0,
2010-04-30, 03:49:04,VALID,1010.6,VALID,0,VALID,101.903,VALID,0,VALID,24.6666,VALID,31,VALID,0,
2010-04-30, 03:50:04,VALID,1010.61,VALID,0,VALID,101.865,VALID,0,VALID,24.6666,VALID,31,VALID,0,